| time (UTC) | temp F | wind direction | speed MPH | gust MPH | rain 1hr in | rain 24hr in | rain mn in | humidity % | barometer mb |
| 20260507221103 | 58 | 315 | 3.0 | 16.0 | 0.00 | 0.00 | 0.00 | 48 | 1013.7 |
| 20260507220557 | 59 | 301 | 6.0 | 16.0 | 0.00 | 0.00 | 0.00 | 47 | 1013.6 |
| 20260507220057 | 59 | 302 | 5.0 | 13.0 | 0.00 | 0.00 | 0.00 | 48 | 1013.7 |
| 20260507215557 | 59 | 294 | 5.0 | 13.0 | 0.00 | 0.00 | 0.00 | 49 | 1013.7 |
| 20260507215056 | 58 | 312 | 5.0 | 13.0 | 0.00 | 0.00 | 0.00 | 50 | 1013.6 |
| 20260507214559 | 58 | 342 | 6.0 | 13.0 | 0.00 | 0.00 | 0.00 | 49 | 1013.8 |
| 20260507214056 | 57 | 34 | 7.0 | 13.0 | 0.00 | 0.00 | 0.00 | 50 | 1013.7 |
| 20260507213556 | 57 | 35 | 7.0 | 12.0 | 0.00 | 0.00 | 0.00 | 51 | 1013.6 |
| 20260507213058 | 57 | 339 | 8.0 | 15.0 | 0.00 | 0.00 | 0.00 | 51 | 1013.6 |
| 20260507212604 | 56 | 346 | 6.0 | 15.0 | 0.00 | 0.00 | 0.00 | 53 | 1013.6 |
| 20260507212101 | 56 | 355 | 8.0 | 14.0 | 0.00 | 0.00 | 0.00 | 51 | 1013.6 |
| 20260507211606 | 57 | 26 | 5.0 | 13.0 | 0.00 | 0.00 | 0.00 | 50 | 1013.4 |
| 20260507211101 | 58 | 295 | 4.0 | 13.0 | 0.00 | 0.00 | 0.00 | 49 | 1013.5 |
| 20260507210601 | 58 | 333 | 3.0 | 16.0 | 0.00 | 0.00 | 0.00 | 50 | 1013.4 |
| 20260507210104 | 58 | 355 | 4.0 | 16.0 | 0.00 | 0.00 | 0.00 | 51 | 1013.5 |
| 20260507205559 | 58 | 321 | 10.0 | 16.0 | 0.00 | 0.00 | 0.00 | 51 | 1013.5 |
| 20260507205100 | 57 | 317 | 5.0 | 15.0 | 0.00 | 0.00 | 0.00 | 53 | 1013.5 |
| 20260507204601 | 57 | 339 | 6.0 | 16.0 | 0.00 | 0.00 | 0.00 | 52 | 1013.4 |
| 20260507204059 | 57 | 29 | 7.0 | 16.0 | 0.00 | 0.00 | 0.00 | 54 | 1013.4 |
| 20260507203559 | 56 | 24 | 5.0 | 19.0 | 0.00 | 0.00 | 0.00 | 53 | 1013.3 |
| 20260507203100 | 57 | 34 | 8.0 | 19.0 | 0.00 | 0.00 | 0.00 | 52 | 1013.4 |
| 20260507202600 | 58 | 34 | 10.0 | 19.0 | 0.00 | 0.00 | 0.00 | 52 | 1013.4 |
| 20260507202101 | 57 | 345 | 2.0 | 14.0 | 0.00 | 0.00 | 0.00 | 52 | 1013.3 |
| 20260507201600 | 58 | 331 | 8.0 | 14.0 | 0.00 | 0.00 | 0.00 | 52 | 1013.3 |
| 20260507201100 | 57 | 318 | 5.0 | 14.0 | 0.00 | 0.00 | 0.00 | 54 | 1013.4 |
| 20260507200600 | 57 | 355 | 8.0 | 16.0 | 0.00 | 0.00 | 0.00 | 53 | 1013.5 |
| 20260507200100 | 57 | 279 | 9.0 | 18.0 | 0.00 | 0.00 | 0.00 | 52 | 1013.6 |
| 20260507195559 | 58 | 324 | 8.0 | 18.0 | 0.00 | 0.00 | 0.00 | 53 | 1013.5 |
| 20260507195102 | 58 | 360 | 9.0 | 18.0 | 0.00 | 0.00 | 0.00 | 54 | 1013.5 |
| 20260507194600 | 58 | 329 | 6.0 | 15.0 | 0.00 | 0.00 | 0.00 | 56 | 1013.5 |
| 20260507194103 | 57 | 333 | 7.0 | 17.0 | 0.00 | 0.00 | 0.00 | 55 | 1013.6 |
| 20260507193601 | 57 | 318 | 8.0 | 17.0 | 0.00 | 0.00 | 0.00 | 54 | 1013.7 |
| 20260507193100 | 57 | 360 | 8.0 | 19.0 | 0.00 | 0.00 | 0.00 | 53 | 1013.6 |
| 20260507192558 | 58 | 355 | 6.0 | 19.0 | 0.00 | 0.00 | 0.00 | 53 | 1013.7 |
| 20260507192100 | 58 | 298 | 9.0 | 15.0 | 0.00 | 0.00 | 0.00 | 54 | 1013.6 |
| 20260507191601 | 58 | 230 | 6.0 | 15.0 | 0.00 | 0.00 | 0.00 | 54 | 1013.6 |
| 20260507191100 | 58 | 246 | 6.0 | 15.0 | 0.00 | 0.00 | 0.00 | 54 | 1013.7 |
| 20260507190600 | 58 | 355 | 8.0 | 15.0 | 0.00 | 0.00 | 0.00 | 53 | 1013.6 |
| 20260507190100 | 58 | 298 | 5.0 | 15.0 | 0.00 | 0.00 | 0.00 | 54 | 1013.7 |
| 20260507185600 | 58 | 330 | 7.0 | 15.0 | 0.00 | 0.00 | 0.00 | 53 | 1013.9 |
| 20260507185100 | 58 | 277 | 6.0 | 15.0 | 0.00 | 0.00 | 0.00 | 54 | 1013.8 |
| 20260507184558 | 58 | 314 | 6.0 | 13.0 | 0.00 | 0.00 | 0.00 | 54 | 1013.7 |
| 20260507184100 | 58 | 328 | 6.0 | 17.0 | 0.00 | 0.00 | 0.00 | 57 | 1013.8 |
| 20260507183603 | 57 | 346 | 8.0 | 17.0 | 0.00 | 0.00 | 0.00 | 54 | 1014.0 |
| 20260507183101 | 57 | 252 | 7.0 | 14.0 | 0.00 | 0.00 | 0.00 | 54 | 1013.9 |
| 20260507182600 | 57 | 326 | 6.0 | 16.0 | 0.00 | 0.00 | 0.00 | 58 | 1014.0 |
| 20260507182102 | 57 | 304 | 8.0 | 18.0 | 0.00 | 0.00 | 0.00 | 56 | 1013.9 |
| 20260507181558 | 57 | 349 | 7.0 | 18.0 | 0.00 | 0.00 | 0.00 | 54 | 1013.8 |
| 20260507181056 | 57 | 294 | 7.0 | 18.0 | 0.00 | 0.00 | 0.00 | 59 | 1013.8 |
| 20260507180556 | 57 | 265 | 8.0 | 20.0 | 0.00 | 0.00 | 0.00 | 56 | 1014.0 |
| 20260507175555 | 57 | 282 | 6.0 | 15.0 | 0.00 | 0.00 | 0.00 | 57 | 1013.8 |
| 20260507175058 | 57 | 302 | 6.0 | 15.0 | 0.00 | 0.00 | 0.00 | 58 | 1014.1 |
| 20260507174613 | 57 | 275 | 7.0 | 15.0 | 0.00 | 0.00 | 0.00 | 59 | 1014.0 |
| 20260507174059 | 57 | 338 | 7.0 | 15.0 | 0.00 | 0.00 | 0.00 | 58 | 1014.0 |
| 20260507173556 | 56 | 298 | 9.0 | 15.0 | 0.00 | 0.00 | 0.00 | 60 | 1014.2 |
| 20260507173104 | 56 | 350 | 7.0 | 15.0 | 0.00 | 0.00 | 0.00 | 58 | 1014.1 |
| 20260507172557 | 56 | 329 | 5.0 | 15.0 | 0.00 | 0.00 | 0.00 | 57 | 1014.3 |
| 20260507172056 | 56 | 284 | 6.0 | 14.0 | 0.00 | 0.00 | 0.00 | 57 | 1014.3 |
| 20260507171610 | 56 | 280 | 6.0 | 13.0 | 0.00 | 0.00 | 0.00 | 58 | 1014.4 |
| 20260507171056 | 56 | 263 | 5.0 | 14.0 | 0.00 | 0.00 | 0.00 | 60 | 1014.3 |
| 20260507170559 | 56 | 298 | 6.0 | 14.0 | 0.00 | 0.00 | 0.00 | 59 | 1014.4 |
| 20260507170058 | 56 | 328 | 6.0 | 16.0 | 0.00 | 0.00 | 0.00 | 58 | 1014.4 |
| 20260507165555 | 56 | 303 | 8.0 | 16.0 | 0.00 | 0.00 | 0.00 | 58 | 1014.5 |
| 20260507165058 | 55 | 246 | 4.0 | 16.0 | 0.00 | 0.00 | 0.00 | 59 | 1014.5 |
| 20260507164603 | 55 | 310 | 8.0 | 16.0 | 0.00 | 0.00 | 0.00 | 57 | 1014.6 |
| 20260507164059 | 55 | 355 | 6.0 | 15.0 | 0.00 | 0.00 | 0.00 | 58 | 1014.7 |
| 20260507163557 | 55 | 277 | 7.0 | 15.0 | 0.00 | 0.00 | 0.00 | 56 | 1014.7 |
| 20260507163100 | 55 | 262 | 7.0 | 16.0 | 0.00 | 0.00 | 0.00 | 57 | 1015.0 |
| 20260507162556 | 55 | 252 | 5.0 | 17.0 | 0.00 | 0.00 | 0.00 | 58 | 1015.0 |
| 20260507162056 | 55 | 322 | 5.0 | 17.0 | 0.00 | 0.00 | 0.00 | 57 | 1015.0 |
| 20260507161603 | 55 | 293 | 6.0 | 17.0 | 0.00 | 0.00 | 0.00 | 56 | 1014.9 |
| 20260507161056 | 55 | 312 | 7.0 | 15.0 | 0.00 | 0.00 | 0.00 | 57 | 1014.9 |
| 20260507160556 | 55 | 266 | 6.0 | 14.0 | 0.00 | 0.00 | 0.00 | 57 | 1014.8 |
| 20260507160056 | 55 | 300 | 5.0 | 14.0 | 0.00 | 0.00 | 0.00 | 58 | 1014.8 |
| 20260507155555 | 54 | 321 | 6.0 | 14.0 | 0.00 | 0.00 | 0.00 | 58 | 1014.8 |
| 20260507155056 | 54 | 259 | 7.0 | 14.0 | 0.00 | 0.00 | 0.00 | 56 | 1014.7 |
| 20260507154601 | 54 | 283 | 5.0 | 13.0 | 0.00 | 0.00 | 0.00 | 56 | 1014.5 |
| 20260507154055 | 54 | 338 | 6.0 | 12.0 | 0.00 | 0.00 | 0.00 | 59 | 1014.5 |
| 20260507153555 | 54 | 333 | 6.0 | 14.0 | 0.00 | 0.00 | 0.00 | 59 | 1014.5 |
| 20260507153103 | 54 | 260 | 6.0 | 14.0 | 0.00 | 0.00 | 0.00 | 59 | 1014.6 |
| 20260507152558 | 54 | 286 | 6.0 | 14.0 | 0.00 | 0.00 | 0.00 | 57 | 1014.5 |
| 20260507152100 | 54 | 277 | 8.0 | 13.0 | 0.00 | 0.00 | 0.00 | 57 | 1014.4 |
| 20260507151630 | 54 | 246 | 5.0 | 13.0 | 0.00 | 0.00 | 0.00 | 60 | 1014.3 |
| 20260507151100 | 54 | 297 | 5.0 | 13.0 | 0.00 | 0.00 | 0.00 | 61 | 1014.4 |
| 20260507150600 | 53 | 254 | 5.0 | 13.0 | 0.00 | 0.00 | 0.00 | 60 | 1014.4 |
| 20260507150103 | 53 | 234 | 6.0 | 13.0 | 0.00 | 0.00 | 0.00 | 59 | 1014.4 |
| 20260507145600 | 53 | 306 | 6.0 | 11.0 | 0.00 | 0.00 | 0.00 | 59 | 1014.3 |
| 20260507145059 | 53 | 267 | 6.0 | 15.0 | 0.00 | 0.00 | 0.00 | 58 | 1014.5 |
| 20260507144600 | 53 | 286 | 6.0 | 15.0 | 0.00 | 0.00 | 0.00 | 58 | 1014.5 |
| 20260507144100 | 53 | 304 | 6.0 | 12.0 | 0.00 | 0.00 | 0.00 | 59 | 1014.5 |
| 20260507143559 | 53 | 321 | 5.0 | 11.0 | 0.00 | 0.00 | 0.00 | 61 | 1014.5 |
| 20260507143059 | 52 | 291 | 3.0 | 14.0 | 0.00 | 0.00 | 0.00 | 61 | 1014.6 |
| 20260507142600 | 52 | 311 | 5.0 | 14.0 | 0.00 | 0.00 | 0.00 | 60 | 1014.5 |
| 20260507142102 | 52 | 341 | 4.0 | 11.0 | 0.00 | 0.00 | 0.00 | 60 | 1014.6 |
| 20260507141100 | 52 | 320 | 6.0 | 12.0 | 0.00 | 0.00 | 0.00 | 62 | 1014.7 |
| 20260507140559 | 52 | 316 | 3.0 | 12.0 | 0.00 | 0.00 | 0.00 | 62 | 1014.7 |
| 20260507135600 | 51 | 240 | 6.0 | 13.0 | 0.00 | 0.00 | 0.00 | 63 | 1014.6 |
| 20260507135100 | 50 | 325 | 5.0 | 13.0 | 0.00 | 0.00 | 0.00 | 63 | 1014.6 |
| 20260507134611 | 50 | 300 | 5.0 | 11.0 | 0.00 | 0.00 | 0.00 | 62 | 1014.8 |
| 20260507134059 | 50 | 284 | 4.0 | 12.0 | 0.00 | 0.00 | 0.00 | 63 | 1014.7 |
| 20260507133559 | 50 | 313 | 6.0 | 12.0 | 0.00 | 0.00 | 0.00 | 62 | 1014.9 |
| 20260507133116 | 50 | 290 | 3.0 | 9.0 | 0.00 | 0.00 | 0.00 | 63 | 1014.9 |
| 20260507132600 | 50 | 328 | 3.0 | 9.0 | 0.00 | 0.00 | 0.00 | 65 | 1014.9 |
| 20260507132100 | 49 | 327 | 3.0 | 9.0 | 0.00 | 0.00 | 0.00 | 63 | 1014.9 |
| 20260507131610 | 49 | 321 | 3.0 | 9.0 | 0.00 | 0.00 | 0.00 | 63 | 1015.0 |
| 20260507131100 | 49 | 323 | 4.0 | 11.0 | 0.00 | 0.00 | 0.00 | 63 | 1015.0 |
| 20260507130600 | 49 | 355 | 4.0 | 11.0 | 0.00 | 0.00 | 0.00 | 64 | 1015.0 |
| 20260507130113 | 48 | 349 | 2.0 | 10.0 | 0.00 | 0.00 | 0.00 | 65 | 1014.9 |
| 20260507125600 | 48 | 336 | 3.0 | 10.0 | 0.00 | 0.00 | 0.00 | 65 | 1015.0 |
| 20260507125100 | 48 | 298 | 3.0 | 10.0 | 0.00 | 0.00 | 0.00 | 65 | 1014.9 |
| 20260507124636 | 48 | 309 | 3.0 | 9.0 | 0.00 | 0.00 | 0.00 | 68 | 1014.9 |
| 20260507124100 | 47 | 315 | 3.0 | 9.0 | 0.00 | 0.00 | 0.00 | 68 | 1014.9 |
| 20260507123600 | 47 | 304 | 3.0 | 9.0 | 0.00 | 0.00 | 0.00 | 68 | 1014.9 |
| 20260507123110 | 47 | 288 | 3.0 | 9.0 | 0.00 | 0.00 | 0.00 | 70 | 1014.9 |
| 20260507122559 | 47 | 322 | 3.0 | 8.0 | 0.00 | 0.00 | 0.00 | 71 | 1014.9 |
| 20260507122059 | 46 | 286 | 2.0 | 8.0 | 0.00 | 0.00 | 0.00 | 72 | 1014.9 |
| 20260507121100 | 45 | 278 | 0.0 | 6.0 | 0.00 | 0.00 | 0.00 | 74 | 1014.9 |
| 20260507120600 | 45 | 0 | 1.0 | 6.0 | 0.00 | 0.00 | 0.00 | 74 | 1015.0 |
| 20260507120150 | 44 | 329 | 1.0 | 5.0 | 0.00 | 0.00 | 0.00 | 75 | 1015.0 |
| 20260507115600 | 44 | 304 | 2.0 | 5.0 | 0.00 | 0.00 | 0.00 | 76 | 1014.9 |
| 20260507115104 | 43 | 281 | 2.0 | 8.0 | 0.00 | 0.00 | 0.00 | 77 | 1014.8 |
| 20260507114613 | 43 | 342 | 1.0 | 8.0 | 0.00 | 0.00 | 0.00 | 78 | 1014.9 |
| 20260507114100 | 42 | 327 | 2.0 | 6.0 | 0.00 | 0.00 | 0.00 | 79 | 1014.9 |
| 20260507113604 | 41 | 296 | 1.0 | 8.0 | 0.00 | 0.00 | 0.00 | 80 | 1014.7 |
| 20260507113058 | 41 | 311 | 1.0 | 8.0 | 0.00 | 0.00 | 0.00 | 81 | 1014.9 |
| 20260507112602 | 41 | 321 | 1.0 | 6.0 | 0.00 | 0.00 | 0.00 | 81 | 1014.9 |
| 20260507112059 | 40 | 283 | 1.0 | 7.0 | 0.00 | 0.00 | 0.00 | 82 | 1014.9 |
| 20260507111558 | 40 | 284 | 1.0 | 7.0 | 0.00 | 0.00 | 0.00 | 82 | 1014.7 |
| 20260507111059 | 40 | 306 | 1.0 | 7.0 | 0.00 | 0.00 | 0.00 | 82 | 1014.6 |
| 20260507110602 | 40 | 293 | 1.0 | 5.0 | 0.00 | 0.00 | 0.00 | 82 | 1014.5 |
| 20260507110059 | 40 | 281 | 1.0 | 7.0 | 0.00 | 0.00 | 0.00 | 82 | 1014.4 |
| 20260507105556 | 39 | 288 | 1.0 | 7.0 | 0.00 | 0.00 | 0.00 | 82 | 1014.4 |
| 20260507105058 | 39 | 302 | 2.0 | 7.0 | 0.00 | 0.00 | 0.00 | 81 | 1014.3 |
| 20260507104600 | 40 | 289 | 2.0 | 6.0 | 0.00 | 0.00 | 0.00 | 81 | 1014.3 |
| 20260507104059 | 40 | 0 | 1.0 | 6.0 | 0.00 | 0.00 | 0.00 | 81 | 1014.4 |
| 20260507103601 | 40 | 0 | 1.0 | 5.0 | 0.00 | 0.00 | 0.00 | 81 | 1014.4 |
| 20260507103058 | 40 | 0 | 0.0 | 5.0 | 0.00 | 0.00 | 0.00 | 81 | 1014.3 |
| 20260507102600 | 40 | 296 | 1.0 | 5.0 | 0.00 | 0.00 | 0.00 | 81 | 1014.3 |
| 20260507102100 | 40 | 292 | 2.0 | 5.0 | 0.00 | 0.00 | 0.00 | 81 | 1014.3 |
| 20260507101603 | 40 | 290 | 2.0 | 5.0 | 0.00 | 0.00 | 0.00 | 81 | 1014.2 |
| 20260507101059 | 40 | 289 | 1.0 | 4.0 | 0.00 | 0.00 | 0.00 | 81 | 1014.3 |
| 20260507100600 | 40 | 296 | 1.0 | 7.0 | 0.00 | 0.00 | 0.00 | 81 | 1014.3 |
| 20260507100059 | 40 | 0 | 1.0 | 8.0 | 0.00 | 0.00 | 0.00 | 81 | 1014.3 |
| 20260507095600 | 40 | 284 | 2.0 | 8.0 | 0.00 | 0.01 | 0.00 | 81 | 1014.2 |
| 20260507095101 | 40 | 0 | 0.0 | 4.0 | 0.00 | 0.01 | 0.00 | 81 | 1014.1 |
| 20260507094558 | 40 | 0 | 1.0 | 4.0 | 0.00 | 0.01 | 0.00 | 81 | 1014.1 |
| 20260507094100 | 40 | 0 | 1.0 | 4.0 | 0.00 | 0.01 | 0.00 | 81 | 1013.9 |
| 20260507093600 | 41 | 292 | 1.0 | 4.0 | 0.00 | 0.01 | 0.00 | 81 | 1013.9 |
| 20260507093100 | 41 | 288 | 1.0 | 4.0 | 0.00 | 0.01 | 0.00 | 81 | 1013.9 |
| 20260507092600 | 41 | 292 | 0.0 | 4.0 | 0.00 | 0.01 | 0.00 | 81 | 1013.9 |
| 20260507092100 | 41 | 296 | 1.0 | 4.0 | 0.00 | 0.01 | 0.00 | 81 | 1013.9 |
| 20260507091600 | 41 | 286 | 0.0 | 4.0 | 0.00 | 0.01 | 0.00 | 81 | 1013.9 |
| 20260507091100 | 41 | 296 | 0.0 | 2.0 | 0.00 | 0.01 | 0.00 | 81 | 1013.9 |
| 20260507090600 | 41 | 0 | 0.0 | 3.0 | 0.00 | 0.01 | 0.00 | 81 | 1013.9 |
| 20260507090105 | 41 | 281 | 0.0 | 3.0 | 0.00 | 0.01 | 0.00 | 81 | 1013.9 |
| 20260507085603 | 41 | 0 | 0.0 | 4.0 | 0.00 | 0.05 | 0.00 | 81 | 1013.9 |
| 20260507085100 | 41 | 0 | 0.0 | 4.0 | 0.00 | 0.05 | 0.00 | 81 | 1013.7 |
| 20260507084600 | 41 | 0 | 0.0 | 4.0 | 0.00 | 0.05 | 0.00 | 81 | 1013.9 |
| 20260507084059 | 42 | 289 | 1.0 | 4.0 | 0.00 | 0.05 | 0.00 | 80 | 1013.9 |
| 20260507083559 | 42 | 286 | 1.0 | 5.0 | 0.00 | 0.05 | 0.00 | 80 | 1013.8 |
| 20260507083100 | 42 | 292 | 1.0 | 5.0 | 0.00 | 0.05 | 0.00 | 80 | 1013.8 |
| 20260507082603 | 42 | 300 | 1.0 | 5.0 | 0.00 | 0.05 | 0.00 | 80 | 1013.9 |
| 20260507082059 | 42 | 290 | 1.0 | 4.0 | 0.00 | 0.05 | 0.00 | 79 | 1013.8 |
| 20260507081600 | 42 | 286 | 1.0 | 4.0 | 0.00 | 0.05 | 0.00 | 79 | 1013.8 |
| 20260507081056 | 43 | 0 | 0.0 | 4.0 | 0.00 | 0.05 | 0.00 | 79 | 1014.0 |
| 20260507080556 | 43 | 291 | 1.0 | 4.0 | 0.00 | 0.05 | 0.00 | 79 | 1013.8 |
| 20260507075602 | 43 | 278 | 0.0 | 4.0 | 0.00 | 0.09 | 0.00 | 79 | 1014.0 |
| 20260507075103 | 43 | 290 | 1.0 | 4.0 | 0.00 | 0.09 | 0.00 | 79 | 1013.9 |
| 20260507074612 | 42 | 277 | 0.0 | 4.0 | 0.00 | 0.09 | 0.00 | 79 | 1014.0 |
| 20260507074059 | 42 | 275 | 0.0 | 0.0 | 0.00 | 0.09 | 0.00 | 79 | 1014.0 |
| 20260507073559 | 42 | 0 | 0.0 | 0.0 | 0.00 | 0.09 | 0.00 | 80 | 1014.0 |
| 20260507073102 | 42 | 0 | 0.0 | 0.0 | 0.00 | 0.09 | 0.00 | 80 | 1013.9 |
| 20260507072600 | 42 | 0 | 0.0 | 4.0 | 0.00 | 0.09 | 0.00 | 80 | 1013.9 |
| 20260507072059 | 42 | 0 | 0.0 | 4.0 | 0.00 | 0.09 | 0.00 | 80 | 1013.9 |
| 20260507071559 | 42 | 0 | 0.0 | 4.0 | 0.00 | 0.09 | 0.00 | 81 | 1014.0 |
| 20260507071059 | 42 | 0 | 2.0 | 4.0 | 0.00 | 0.09 | 0.00 | 81 | 1014.0 |
| 20260507070556 | 42 | 0 | 0.0 | 2.0 | 0.00 | 0.09 | 0.00 | 82 | 1014.0 |
| 20260507070116 | 42 | 0 | 0.0 | 2.0 | 0.00 | 0.09 | 0.00 | 82 | 1014.0 |
| 20260507065558 | 42 | 0 | 0.0 | 2.0 | 0.00 | 0.14 | 0.00 | 83 | 1013.9 |
| 20260507065056 | 41 | 289 | 0.0 | 2.0 | 0.00 | 0.14 | 0.00 | 83 | 1014.0 |
| 20260507064612 | 41 | 0 | 0.0 | 2.0 | 0.00 | 0.14 | 0.00 | 84 | 1014.0 |
| 20260507064056 | 41 | 290 | 0.0 | 2.0 | 0.00 | 0.14 | 0.00 | 85 | 1014.0 |
| 20260507063559 | 41 | 0 | 0.0 | 0.0 | 0.00 | 0.14 | 0.00 | 85 | 1014.0 |
| 20260507063101 | 41 | 0 | 0.0 | 0.0 | 0.00 | 0.14 | 0.00 | 85 | 1014.0 |
| 20260507062559 | 41 | 0 | 0.0 | 0.0 | 0.00 | 0.14 | 0.00 | 86 | 1014.1 |
| 20260507062104 | 41 | 0 | 0.0 | 0.0 | 0.00 | 0.14 | 0.00 | 85 | 1014.0 |
| 20260507061600 | 41 | 0 | 0.0 | 0.0 | 0.00 | 0.14 | 0.00 | 85 | 1014.1 |
| 20260507061059 | 40 | 0 | 0.0 | 0.0 | 0.00 | 0.14 | 0.00 | 85 | 1014.1 |
| 20260507060602 | 40 | 0 | 0.0 | 0.0 | 0.00 | 0.14 | 0.00 | 84 | 1014.1 |
| 20260507060059 | 40 | 0 | 0.0 | 0.0 | 0.00 | 0.14 | 0.00 | 84 | 1014.2 |
| 20260507055559 | 40 | 0 | 0.0 | 0.0 | 0.00 | 0.20 | 0.00 | 84 | 1014.2 |
| 20260507055059 | 41 | 0 | 0.0 | 0.0 | 0.00 | 0.20 | 0.00 | 83 | 1014.1 |
| 20260507054605 | 41 | 0 | 0.0 | 0.0 | 0.00 | 0.20 | 0.00 | 83 | 1014.2 |
| 20260507054100 | 41 | 0 | 0.0 | 0.0 | 0.00 | 0.20 | 0.00 | 83 | 1014.2 |
| 20260507053556 | 41 | 0 | 0.0 | 2.0 | 0.00 | 0.20 | 0.00 | 83 | 1014.4 |
| 20260507053057 | 41 | 0 | 0.0 | 2.0 | 0.00 | 0.20 | 0.00 | 83 | 1014.4 |
| 20260507052556 | 41 | 0 | 0.0 | 1.0 | 0.00 | 0.20 | 0.00 | 83 | 1014.5 |
| 20260507052056 | 41 | 0 | 0.0 | 2.0 | 0.00 | 0.20 | 0.00 | 84 | 1014.5 |
| 20260507051603 | 40 | 0 | 0.0 | 2.0 | 0.00 | 0.20 | 0.00 | 84 | 1014.5 |
| 20260507051056 | 40 | 0 | 0.0 | 2.0 | 0.00 | 0.20 | 0.00 | 85 | 1014.5 |
| 20260507050559 | 40 | 0 | 0.0 | 0.0 | 0.00 | 0.20 | 0.00 | 84 | 1014.4 |
| 20260507050058 | 40 | 0 | 0.0 | 0.0 | 0.00 | 0.20 | 0.00 | 84 | 1014.5 |
| 20260507045602 | 40 | 0 | 0.0 | 0.0 | 0.00 | 0.23 | 0.00 | 84 | 1014.4 |
| 20260507045100 | 41 | 0 | 0.0 | 0.0 | 0.00 | 0.23 | 0.00 | 84 | 1014.5 |
| 20260507044559 | 41 | 0 | 0.0 | 0.0 | 0.00 | 0.23 | 0.00 | 84 | 1014.4 |
| 20260507044056 | 41 | 0 | 0.0 | 0.0 | 0.00 | 0.23 | 0.00 | 83 | 1014.4 |
| 20260507043556 | 41 | 0 | 0.0 | 0.0 | 0.00 | 0.23 | 0.00 | 83 | 1014.5 |
| 20260507043056 | 41 | 0 | 0.0 | 0.0 | 0.00 | 0.23 | 0.00 | 83 | 1014.5 |
| 20260507042557 | 41 | 0 | 0.0 | 0.0 | 0.00 | 0.23 | 0.00 | 83 | 1014.4 |
| 20260507042058 | 41 | 0 | 0.0 | 0.0 | 0.00 | 0.23 | 0.00 | 83 | 1014.4 |
| 20260507041557 | 41 | 0 | 0.0 | 0.0 | 0.00 | 0.23 | 0.00 | 83 | 1014.5 |
| 20260507041056 | 41 | 0 | 0.0 | 0.0 | 0.00 | 0.23 | 0.00 | 83 | 1014.4 |
| 20260507040557 | 41 | 0 | 0.0 | 0.0 | 0.00 | 0.23 | 0.00 | 83 | 1014.4 |
| 20260507040109 | 42 | 0 | 0.0 | 0.0 | 0.00 | 0.23 | 0.00 | 82 | 1014.5 |
| 20260507035559 | 42 | 0 | 0.0 | 0.0 | 0.00 | 0.25 | 0.23 | 82 | 1014.4 |
| 20260507035102 | 42 | 0 | 0.0 | 0.0 | 0.00 | 0.25 | 0.23 | 81 | 1014.5 |
| 20260507034606 | 42 | 0 | 0.0 | 0.0 | 0.00 | 0.25 | 0.23 | 80 | 1014.5 |
| 20260507034059 | 42 | 0 | 0.0 | 0.0 | 0.00 | 0.25 | 0.23 | 79 | 1014.5 |
| 20260507033556 | 42 | 0 | 0.0 | 0.0 | 0.00 | 0.25 | 0.23 | 79 | 1014.6 |
| 20260507033103 | 42 | 0 | 0.0 | 0.0 | 0.00 | 0.25 | 0.23 | 78 | 1014.6 |
| 20260507032600 | 43 | 0 | 0.0 | 0.0 | 0.00 | 0.25 | 0.23 | 77 | 1014.7 |
| 20260507032104 | 43 | 0 | 0.0 | 0.0 | 0.00 | 0.25 | 0.23 | 77 | 1014.7 |
| 20260507031619 | 43 | 0 | 0.0 | 0.0 | 0.00 | 0.25 | 0.23 | 77 | 1014.8 |
| 20260507031058 | 43 | 0 | 0.0 | 0.0 | 0.00 | 0.25 | 0.23 | 77 | 1014.8 |
| 20260507030556 | 44 | 0 | 0.0 | 0.0 | 0.00 | 0.25 | 0.23 | 77 | 1014.8 |
| 20260507030057 | 44 | 0 | 0.0 | 0.0 | 0.00 | 0.25 | 0.23 | 76 | 1015.0 |
| 20260507025556 | 44 | 0 | 0.0 | 0.0 | 0.00 | 0.33 | 0.23 | 76 | 1014.9 |
| 20260507025056 | 45 | 0 | 0.0 | 0.0 | 0.00 | 0.33 | 0.23 | 75 | 1015.0 |
| 20260507024559 | 45 | 0 | 0.0 | 0.0 | 0.00 | 0.33 | 0.23 | 75 | 1015.0 |
| 20260507024056 | 45 | 0 | 0.0 | 0.0 | 0.00 | 0.33 | 0.23 | 75 | 1014.9 |
| 20260507023559 | 46 | 0 | 0.0 | 0.0 | 0.00 | 0.33 | 0.23 | 74 | 1014.8 |
| 20260507023100 | 46 | 0 | 0.0 | 0.0 | 0.00 | 0.33 | 0.23 | 73 | 1014.9 |
| 20260507022601 | 46 | 0 | 0.0 | 0.0 | 0.00 | 0.33 | 0.23 | 73 | 1014.8 |
| 20260507022056 | 47 | 0 | 0.0 | 0.0 | 0.00 | 0.33 | 0.23 | 73 | 1014.7 |
| 20260507021601 | 47 | 0 | 0.0 | 0.0 | 0.00 | 0.33 | 0.23 | 73 | 1014.6 |
| 20260507021059 | 48 | 0 | 0.0 | 0.0 | 0.00 | 0.33 | 0.23 | 72 | 1014.5 |
| 20260507020558 | 48 | 0 | 0.0 | 0.0 | 0.00 | 0.33 | 0.23 | 71 | 1014.5 |
| 20260507015559 | 49 | 0 | 0.0 | 0.0 | 0.00 | 0.41 | 0.23 | 72 | 1014.5 |
| 20260507015056 | 49 | 0 | 0.0 | 1.0 | 0.00 | 0.41 | 0.23 | 72 | 1014.3 |
| 20260507014559 | 50 | 0 | 0.0 | 3.0 | 0.00 | 0.41 | 0.23 | 71 | 1014.4 |
| 20260507014056 | 50 | 0 | 0.0 | 3.0 | 0.00 | 0.41 | 0.23 | 71 | 1014.3 |
| 20260507013559 | 50 | 338 | 0.0 | 4.0 | 0.00 | 0.41 | 0.23 | 70 | 1014.3 |
| 20260507013118 | 50 | 325 | 0.0 | 4.0 | 0.00 | 0.41 | 0.23 | 70 | 1014.2 |
| 20260507012556 | 50 | 324 | 1.0 | 3.0 | 0.00 | 0.41 | 0.23 | 70 | 1014.2 |
| 20260507012059 | 50 | 0 | 0.0 | 2.0 | 0.00 | 0.41 | 0.23 | 71 | 1014.4 |
| 20260507011609 | 50 | 0 | 0.0 | 2.0 | 0.00 | 0.41 | 0.23 | 71 | 1014.3 |
| 20260507011102 | 51 | 0 | 0.0 | 0.0 | 0.00 | 0.41 | 0.23 | 71 | 1014.2 |
| 20260507010603 | 51 | 0 | 0.0 | 0.0 | 0.00 | 0.41 | 0.23 | 71 | 1014.0 |
| 20260507010108 | 51 | 0 | 0.0 | 0.0 | 0.00 | 0.41 | 0.23 | 70 | 1014.1 |
| 20260507005600 | 51 | 0 | 0.0 | 0.0 | 0.00 | 0.45 | 0.23 | 70 | 1014.0 |
| 20260507005105 | 51 | 0 | 0.0 | 1.0 | 0.00 | 0.45 | 0.23 | 70 | 1014.0 |
| 20260507004601 | 51 | 0 | 0.0 | 1.0 | 0.00 | 0.45 | 0.23 | 70 | 1014.0 |
| 20260507004059 | 51 | 0 | 0.0 | 1.0 | 0.00 | 0.45 | 0.23 | 70 | 1013.7 |
| 20260507003604 | 51 | 0 | 0.0 | 2.0 | 0.00 | 0.45 | 0.23 | 69 | 1013.6 |
| 20260507003059 | 52 | 0 | 0.0 | 3.0 | 0.00 | 0.45 | 0.23 | 69 | 1013.6 |
| 20260507002600 | 52 | 0 | 0.0 | 3.0 | 0.00 | 0.45 | 0.23 | 68 | 1013.8 |
| 20260507002059 | 52 | 306 | 1.0 | 5.0 | 0.00 | 0.45 | 0.23 | 67 | 1013.6 |
| 20260507001558 | 52 | 0 | 1.0 | 5.0 | 0.00 | 0.45 | 0.23 | 66 | 1013.4 |
| 20260507001058 | 52 | 327 | 2.0 | 4.0 | 0.00 | 0.45 | 0.23 | 64 | 1013.5 |
| 20260507000600 | 52 | 325 | 2.0 | 5.0 | 0.00 | 0.45 | 0.23 | 64 | 1013.5 |
| 20260507000059 | 53 | 347 | 2.0 | 5.0 | 0.00 | 0.45 | 0.23 | 64 | 1013.4 |
| 20260506235601 | 53 | 0 | 2.0 | 5.0 | 0.00 | 0.48 | 0.23 | 64 | 1013.3 |
| 20260506235105 | 53 | 316 | 1.0 | 8.0 | 0.00 | 0.48 | 0.23 | 64 | 1013.3 |
| 20260506234558 | 53 | 327 | 2.0 | 8.0 | 0.00 | 0.48 | 0.23 | 63 | 1013.3 |
| 20260506234101 | 53 | 337 | 2.0 | 9.0 | 0.00 | 0.48 | 0.23 | 63 | 1013.2 |
| 20260506233600 | 53 | 321 | 3.0 | 9.0 | 0.00 | 0.48 | 0.23 | 63 | 1013.4 |
| 20260506233113 | 54 | 335 | 4.0 | 9.0 | 0.00 | 0.48 | 0.23 | 62 | 1013.2 |
| 20260506232602 | 54 | 347 | 4.0 | 9.0 | 0.00 | 0.48 | 0.23 | 62 | 1013.4 |
| 20260506232059 | 53 | 336 | 4.0 | 10.0 | 0.00 | 0.48 | 0.23 | 62 | 1013.3 |
| 20260506231618 | 53 | 341 | 5.0 | 10.0 | 0.00 | 0.48 | 0.23 | 62 | 1013.4 |
| 20260506231100 | 53 | 341 | 4.0 | 9.0 | 0.00 | 0.48 | 0.23 | 62 | 1013.4 |
| 20260506230559 | 53 | 312 | 4.0 | 9.0 | 0.00 | 0.48 | 0.23 | 62 | 1013.5 |
| 20260506230105 | 53 | 334 | 3.0 | 8.0 | 0.00 | 0.48 | 0.23 | 62 | 1013.6 |
| 20260506225603 | 54 | 319 | 3.0 | 8.0 | 0.00 | 0.52 | 0.23 | 62 | 1013.7 |
| 20260506225100 | 54 | 314 | 3.0 | 10.0 | 0.00 | 0.52 | 0.23 | 61 | 1013.6 |
| 20260506224600 | 54 | 311 | 4.0 | 11.0 | 0.00 | 0.52 | 0.23 | 62 | 1013.7 |
| 20260506224059 | 54 | 331 | 5.0 | 11.0 | 0.00 | 0.52 | 0.23 | 62 | 1013.7 |
| 20260506223600 | 54 | 322 | 5.0 | 11.0 | 0.00 | 0.52 | 0.23 | 62 | 1013.7 |
| 20260506223057 | 54 | 302 | 3.0 | 9.0 | 0.00 | 0.52 | 0.23 | 63 | 1013.6 |
| 20260506222600 | 54 | 321 | 4.0 | 9.0 | 0.00 | 0.52 | 0.23 | 62 | 1013.8 |
| 20260506222100 | 54 | 325 | 4.0 | 11.0 | 0.00 | 0.52 | 0.23 | 62 | 1013.7 |
| 20260506221601 | 54 | 323 | 4.0 | 11.0 | 0.00 | 0.52 | 0.23 | 61 | 1013.8 |